This is the latest recevied weather packets stored in our database for station/object KB0RPJ. If no packets are shown the sender has not sent any weather packets the latest 10 day(s).
| Time | Temp. | Humidity | Pressure | Rain* | Wind** | Luminosity | Snow |
|---|---|---|---|---|---|---|---|
| 1778107205 | 14.44° C | 32% | 1016.8 hPa | 0 mm | - | 449 W/m² | - |
| 1778106904 | 14.44° C | 32% | 1016.9 hPa | 0 mm | - | 354 W/m² | - |
| 1778106605 | 14.44° C | 34% | 1016.7 hPa | 0 mm | - | 218 W/m² | - |
| 1778106304 | 14.44° C | 33% | 1016.8 hPa | 0 mm | - | 342 W/m² | - |
| 1778106005 | 14.44° C | 31% | 1016.9 hPa | 0 mm | - | 183 W/m² | - |
| 1778105704 | 15° C | 33% | 1016.9 hPa | 0 mm | - | 189 W/m² | - |
| 1778105405 | 15° C | 33% | 1017 hPa | 0 mm | - | 188 W/m² | - |
| 1778105105 | 15° C | 33% | 1017 hPa | 0 mm | - | 262 W/m² | - |
| 1778104805 | 15° C | 32% | 1017 hPa | 0 mm | - | 636 W/m² | - |
| 1778104505 | 15° C | 33% | 1017 hPa | 0 mm | - | 586 W/m² | - |
| 1778104205 | 15° C | 33% | 1017 hPa | 0 mm | - | 473 W/m² | - |
| 1778103910 | 15° C | 33% | 1016.9 hPa | 0 mm | - | 401 W/m² | - |
| 1778103610 | 14.44° C | 36% | 1017 hPa | 0 mm | - | 658 W/m² | - |
| 1778103306 | 14.44° C | 34% | 1016.9 hPa | 0 mm | - | 376 W/m² | - |
| 1778103005 | 14.44° C | 33% | 1016.9 hPa | 0 mm | - | 482 W/m² | - |
| 1778102706 | 14.44° C | 33% | 1017 hPa | 0 mm | - | 421 W/m² | - |
| 1778102406 | 14.44° C | 31% | 1017.1 hPa | 0 mm | - | 422 W/m² | - |
| 1778102122 | 15° C | 32% | 1017.2 hPa | 0 mm | - | 625 W/m² | - |
| 1778101805 | 15.56° C | 33% | 1017.2 hPa | 0 mm | - | 599 W/m² | - |
| 1778101506 | 15.56° C | 35% | 1017.2 hPa | 0 mm | - | 309 W/m² | - |
| 1778101205 | 15.56° C | 34% | 1017.3 hPa | 0 mm | - | 604 W/m² | - |
| 1778100905 | 15° C | 34% | 1017.5 hPa | 0 mm | - | 901 W/m² | - |
| 1778100606 | 15° C | 33% | 1017.4 hPa | 0 mm | - | 909 W/m² | - |
| 1778100305 | 15° C | 37% | 1017.5 hPa | 0 mm | - | 383 W/m² | - |
| 1778100005 | 15° C | 32% | 1017.5 hPa | 0 mm | - | 821 W/m² | - |
* Rain latest hour (hover to see other rain measurements)
** Current wind speed in m/s (hover to see current wind gust speed)